Location: Linton
(52.0940°N, 0.2850°E)
Time: 01:58:19
(UTC+00:00)

N. Korean satellite - Visible Passes

Search period start: 20 February 2018 00:00
Search period end: 02 March 2018 00:00
Orbit: 459 x 514 km, 97.2° (Epoch: 19 February)

Date Brightness Start Highest point End Pass type
(mag) Time Alt. Az. Time Alt. Az. Time Alt. Az.
20 Feb 10.1 05:43:09 10° NE 05:45:27 16° E 05:47:46 10° SE visible
20 Feb 7.3 17:57:11 10° S 18:00:35 56° W 18:04:03 10° NNW visible
21 Feb 10.5 19:10:20 10° W 19:10:51 10° W 19:11:22 10° WNW visible
22 Feb 9.8 18:44:23 10° SW 18:46:51 18° W 18:49:20 10° NW visible
23 Feb 9.3 06:04:45 10° NE 06:07:55 26° E 06:11:05 10° SSE visible
23 Feb 8.7 18:19:47 10° SSW 18:22:55 31° W 18:26:07 10° NNW visible
24 Feb 10.1 05:41:40 10° NE 05:43:59 16° E 05:46:16 10° SE visible
25 Feb 10.4 19:08:26 10° W 19:09:19 11° W 19:10:12 10° WNW visible
26 Feb 9.8 18:42:45 10° SW 18:45:18 19° W 18:47:53 10° NW visible
27 Feb 9.4 06:03:14 10° NE 06:06:24 26° E 06:09:33 10° SSE visible
27 Feb 8.7 18:18:10 10° SSW 18:21:21 32° W 18:24:37 10° NNW visible
28 Feb 10.2 05:40:09 10° NE 05:42:26 15° E 05:44:43 10° SE visible
01 Mar 10.4 19:06:34 10° WSW 19:07:43 11° W 19:08:54 10° WNW visible
